Location: McFarlands Corners
(41.4117°N, 81.3382°W)
Time: 13:05:38
(UTC+00:00)

Explorer 7 - Pass Details

Date: 19 February 2026
Orbit: 430 x 541 km, 50.2° (Epoch: 12 March)

Event Time Altitude Azimuth Distance (km) Brightness Sun altitude
Rises 19:04:12 0° 217° (SW) 2,391 11.1 34.0°
Reaches altitude 10° 19:06:22 10° 209° (SSW) 1,536 10.6 33.8°
Maximum altitude 19:09:35 38° 139° (SE) 692 8.0 33.5°
Drops below altitude 10° 19:12:55 10° 70° (ENE) 1,586 8.9 33.3°
Sets 19:15:11 0° 63° (ENE) 2,482 9.7 33.1°
